CW9659 Weather Reports


Display with metric or nautical units.
time (UTC)temp
F
wind
direction
speed
MPH
gust
MPH
rain 1hr
in
rain 24hr
in
rain mn
in
humidity
%
barometer
mb
20260504013903 56 131 0.0 1.0 0.00 0.01 0.00 58 1014.7
20260504012903 56 130 0.0 1.0 0.00 0.01 0.00 57 1014.5
20260504012404 57 128 0.0 1.0 0.00 0.01 0.00 56 1014.5
20260504011904 57 136 0.0 1.0 0.00 0.01 0.00 55 1014.6
20260504011403 57 136 0.0 1.0 0.00 0.01 0.00 54 1014.6
20260504010904 57 136 0.0 1.0 0.00 0.01 0.00 55 1014.6
20260504010403 58 144 0.0 0.0 0.00 0.01 0.00 53 1014.6
20260504005903 58 144 0.0 0.0 0.00 0.01 0.00 53 1014.6
20260504005403 59 144 0.0 0.0 0.00 0.01 0.00 52 1014.6
20260504004403 59 152 0.0 1.0 0.00 0.01 0.00 51 1014.4
20260504003903 60 160 0.0 0.0 0.00 0.01 0.00 50 1014.4
20260504003404 60 172 0.0 1.0 0.00 0.01 0.00 50 1014.5
20260504002903 60 185 0.0 1.0 0.00 0.01 0.00 49 1014.5
20260504002403 60 167 0.0 1.0 0.00 0.01 0.00 49 1014.5
20260504001903 60 158 0.0 1.0 0.00 0.01 0.00 49 1014.5
20260504000904 61 173 0.0 2.0 0.00 0.01 0.00 48 1014.6
20260504000403 61 167 0.0 2.0 0.00 0.01 0.00 48 1014.7
20260503235904 61 181 0.0 1.0 0.00 0.01 0.00 47 1014.7
20260503235404 62 177 2.0 3.0 0.00 0.01 0.00 46 1014.5
20260503234904 62 172 1.0 3.0 0.00 0.02 0.00 47 1014.6
20260503234403 62 161 1.0 3.0 0.00 0.02 0.00 47 1014.6
20260503233403 62 197 2.0 5.0 0.00 0.02 0.00 45 1014.8
20260503232903 63 182 2.0 3.0 0.00 0.02 0.00 44 1014.9
20260503232403 63 183 3.0 3.0 0.00 0.02 0.00 44 1015.0
20260503231903 63 194 2.0 7.0 0.00 0.02 0.00 44 1015.1
20260503231403 63 161 2.0 6.0 0.00 0.02 0.00 45 1015.1
20260503230903 63 166 1.0 3.0 0.00 0.02 0.00 44 1015.1
20260503230403 64 208 2.0 5.0 0.00 0.02 0.00 42 1015.2
20260503225904 64 191 2.0 6.0 0.00 0.02 0.00 42 1015.6
20260503225403 64 243 0.0 1.0 0.00 0.02 0.00 44 1015.7
20260503224903 64 235 2.0 5.0 0.00 0.02 0.00 43 1015.8
20260503224403 64 205 1.0 5.0 0.00 0.02 0.00 44 1015.8
20260503223904 64 191 2.0 3.0 0.00 0.02 0.00 44 1015.8
20260503223403 64 219 1.0 3.0 0.00 0.02 0.00 43 1015.8
20260503222904 64 163 1.0 3.0 0.00 0.02 0.00 43 1015.8
20260503222403 64 202 1.0 3.0 0.00 0.02 0.00 44 1015.8
20260503221403 64 198 2.0 6.0 0.00 0.02 0.00 42 1016.0
20260503220403 65 198 1.0 6.0 0.00 0.02 0.00 41 1016.2
20260503215903 65 196 2.0 5.0 0.00 0.02 0.00 41 1016.3
20260503214904 67 202 3.0 5.0 0.00 0.02 0.00 40 1016.4
20260503214404 67 255 0.0 2.0 0.00 0.02 0.00 39 1016.4
20260503213904 67 224 2.0 6.0 0.00 0.02 0.00 41 1016.7
20260503213403 67 190 2.0 3.0 0.00 0.02 0.00 40 1016.7
20260503212403 67 155 2.0 5.0 0.00 0.02 0.00 40 1016.7
20260503211903 67 147 0.0 3.0 0.00 0.02 0.00 41 1016.8
20260503211404 67 203 1.0 3.0 0.00 0.02 0.00 42 1016.9
20260503210903 67 207 1.0 3.0 0.00 0.02 0.00 41 1016.9
20260503210404 67 217 2.0 7.0 0.00 0.02 0.00 40 1017.0
20260503205904 68 192 3.0 8.0 0.00 0.02 0.00 40 1017.1
20260503205403 68 163 0.0 3.0 0.00 0.02 0.00 40 1017.1
20260503204904 67 232 0.0 2.0 0.00 0.02 0.00 40 1017.2
20260503204403 67 254 1.0 3.0 0.00 0.02 0.00 41 1017.3
20260503203403 67 218 1.0 3.0 0.00 0.02 0.00 41 1017.7
20260503202903 67 217 0.0 1.0 0.00 0.02 0.00 43 1017.7
20260503202403 66 127 1.0 3.0 0.00 0.02 0.00 38 1017.9
20260503201903 67 229 1.0 3.0 0.00 0.02 0.00 40 1017.9
20260503201403 67 147 1.0 7.0 0.00 0.02 0.00 40 1018.1
20260503200903 67 196 3.0 6.0 0.00 0.02 0.00 38 1018.2
20260503200403 66 16 0.0 5.0 0.00 0.02 0.00 39 1018.3
20260503195903 66 288 1.0 2.0 0.00 0.02 0.00 37 1018.5
20260503195403 66 259 1.0 3.0 0.00 0.02 0.00 41 1018.6
20260503194903 66 193 2.0 5.0 0.00 0.02 0.00 37 1018.7
20260503194403 66 296 0.0 3.0 0.00 0.02 0.00 42 1018.9
20260503193903 66 178 1.0 3.0 0.00 0.02 0.00 40 1018.9
20260503193404 66 188 2.0 5.0 0.00 0.02 0.00 40 1019.0
20260503192904 65 203 1.0 3.0 0.00 0.02 0.00 40 1019.0
20260503191904 64 303 1.0 3.0 0.00 0.02 0.00 39 1019.1
20260503190904 64 165 3.0 7.0 0.00 0.02 0.00 43 1019.3
20260503190403 64 220 1.0 3.0 0.00 0.02 0.00 46 1019.3
20260503185403 63 257 2.0 3.0 0.00 0.02 0.00 46 1019.4
20260503181403 61 206 1.0 5.0 0.00 0.02 0.00 50 1020.0
20260503180903 60 244 2.0 3.0 0.00 0.02 0.00 48 1020.0
20260503180404 60 166 2.0 6.0 0.00 0.02 0.00 50 1020.0
20260503175903 60 172 1.0 5.0 0.00 0.02 0.00 49 1020.0
20260503175403 60 174 1.0 3.0 0.00 0.02 0.00 47 1020.1
20260503174904 60 201 2.0 7.0 0.00 0.02 0.00 48 1020.1
20260503174403 60 304 1.0 5.0 0.00 0.02 0.00 44 1020.2
20260503173903 60 173 3.0 6.0 0.00 0.02 0.00 48 1020.3
20260503173403 60 197 2.0 5.0 0.00 0.02 0.00 48 1020.4
20260503172903 59 221 2.0 5.0 0.00 0.02 0.00 50 1020.4
20260503172403 59 309 0.0 3.0 0.00 0.02 0.00 54 1020.5
20260503171903 59 226 2.0 3.0 0.00 0.02 0.00 51 1020.6
20260503170904 59 219 2.0 5.0 0.00 0.02 0.00 52 1020.7
20260503170403 58 236 0.0 3.0 0.00 0.02 0.00 51 1020.7
20260503150903 56 226 1.0 3.0 0.00 0.02 0.00 56 1021.9
20260503150404 56 130 0.0 3.0 0.00 0.02 0.00 58 1021.9
20260503131403 43 154 2.0 3.0 0.00 0.02 0.00 61 1021.6
20260503130904 42 119 1.0 3.0 0.00 0.02 0.00 61 1021.6
20260503130403 41 114 1.0 3.0 0.00 0.02 0.00 62 1021.6
20260503110403 34 150 0.0 0.0 0.00 0.02 0.00 69 1020.6
20260503090403 37 165 0.0 0.0 0.00 0.02 0.00 70 1020.2
20260503081403 39 165 0.0 0.0 0.00 0.02 0.00 68 1020.0
20260503080903 39 165 0.0 0.0 0.00 0.02 0.00 68 1019.9
20260503080403 39 165 0.0 0.0 0.00 0.02 0.00 69 1019.9
20260503072904 40 165 0.0 0.0 0.00 0.02 0.00 68 1019.7
20260503072404 40 165 0.0 0.0 0.00 0.02 0.00 68 1019.8
20260503071904 40 166 0.0 0.0 0.00 0.02 0.00 67 1019.8
20260503071404 41 165 0.0 0.0 0.00 0.02 0.00 67 1019.7
20260503070904 41 165 0.0 0.0 0.00 0.02 0.00 68 1019.6
20260503070403 41 165 0.0 0.0 0.00 0.02 0.00 68 1019.6
20260503054904 43 165 0.0 0.0 0.00 0.02 0.00 68 1019.5
20260503054404 43 165 0.0 0.0 0.00 0.02 0.00 68 1019.5
20260503053904 43 165 0.0 0.0 0.00 0.02 0.00 68 1019.5
20260503053403 43 165 0.0 0.0 0.00 0.02 0.00 68 1019.5
20260503052404 43 165 0.0 0.0 0.00 0.02 0.00 67 1019.5
20260503051904 43 165 0.0 0.0 0.00 0.02 0.00 66 1019.5
20260503051403 43 165 0.0 0.0 0.00 0.02 0.00 66 1019.4
20260503050903 43 165 0.0 0.0 0.00 0.02 0.00 66 1019.4
20260503050403 43 165 0.0 0.0 0.00 0.02 0.00 66 1019.3
20260503045904 43 165 0.0 0.0 0.00 0.02 0.02 66 1019.2
20260503045403 43 165 0.0 0.0 0.00 0.02 0.02 67 1019.2
20260503044903 43 165 0.0 0.0 0.00 0.02 0.02 70 1019.2
20260503044403 43 165 0.0 0.0 0.00 0.02 0.02 70 1019.1
20260503043904 43 165 0.0 0.0 0.00 0.02 0.02 71 1019.1
20260503043403 43 165 0.0 0.0 0.00 0.02 0.02 71 1019.1
20260503042903 43 165 0.0 0.0 0.00 0.02 0.02 71 1019.1
20260503041903 44 165 0.0 0.0 0.00 0.02 0.02 71 1019.0
20260503041404 44 165 0.0 0.0 0.00 0.02 0.02 71 1019.0
20260503040904 44 165 0.0 0.0 0.00 0.02 0.02 71 1018.9
20260503040404 44 165 0.0 0.0 0.00 0.02 0.02 70 1018.9
20260503035904 45 165 0.0 0.0 0.00 0.02 0.02 69 1018.9
20260503035403 45 165 0.0 0.0 0.00 0.02 0.02 69 1018.9
20260503034904 45 165 0.0 0.0 0.00 0.02 0.02 70 1018.8
20260503034403 45 165 0.0 0.0 0.00 0.02 0.02 71 1018.8
20260503033903 45 165 0.0 0.0 0.00 0.02 0.02 72 1018.8
20260503033404 45 165 0.0 0.0 0.00 0.02 0.02 73 1018.8
20260503032403 45 165 0.0 0.0 0.00 0.02 0.02 75 1018.8
20260503031904 45 165 0.0 0.0 0.00 0.02 0.02 75 1018.8
20260503030904 45 165 0.0 0.0 0.00 0.02 0.02 75 1018.9
20260503030403 45 165 0.0 0.0 0.00 0.02 0.02 75 1018.9
20260503025404 45 165 0.0 0.0 0.00 0.02 0.02 76 1018.9
20260503024904 46 165 0.0 0.0 0.00 0.02 0.02 75 1018.8
20260503024404 46 165 0.0 0.0 0.01 0.02 0.02 76 1018.8
20260503023903 46 165 0.0 0.0 0.01 0.02 0.02 75 1018.7
20260503023403 46 165 0.0 0.0 0.01 0.02 0.02 75 1018.8
20260503022903 46 165 0.0 0.0 0.01 0.02 0.02 77 1018.8
20260503022403 46 165 0.0 0.0 0.01 0.02 0.02 79 1018.7
20260503021404 46 165 0.0 0.0 0.01 0.02 0.02 76 1018.7
20260503020903 46 165 0.0 0.0 0.01 0.02 0.02 76 1018.6
20260503020403 46 165 0.0 0.0 0.01 0.02 0.02 79 1018.6
20260503015904 47 165 0.0 0.0 0.01 0.02 0.02 80 1018.5
20260503015403 47 165 0.0 0.0 0.01 0.02 0.02 80 1018.3
20260503014404 47 165 0.0 0.0 0.00 0.01 0.01 82 1018.2